Location: Caltech
(34.1382°N, 118.1253°W)
Time: 08:23:00
(UTC-08:00)

SL-16 R/B - Visible Passes

Search period start: 22 February 2018 00:00
Search period end: 04 March 2018 00:00
Orbit: 843 x 845 km, 71.0° (Epoch: 21 February)

Date Brightness Start Highest point End Pass type
(mag) Time Alt. Az. Time Alt. Az. Time Alt. Az.
22 Feb 4.9 04:08:47 10° SE 04:12:19 17° E 04:15:52 10° ENE visible
22 Feb 2.3 05:50:23 10° SW 05:55:53 53° WNW 06:01:26 10° N visible
23 Feb 4.9 03:54:41 10° SE 03:58:04 16° E 04:01:28 10° ENE visible
23 Feb 2.3 05:36:05 10° SW 05:41:36 55° WNW 05:47:11 10° NNE visible
24 Feb 4.9 03:40:36 10° SE 03:43:49 16° E 03:47:03 10° ENE visible
24 Feb 2.2 05:21:47 10° SW 05:27:20 57° WNW 05:32:55 10° NNE visible
25 Feb 4.9 03:26:32 10° SE 03:29:34 15° E 03:32:37 10° ENE visible
25 Feb 2.2 05:07:28 10° SSW 05:13:03 60° WNW 05:18:40 10° NNE visible
26 Feb 4.8 03:12:39 10° SE 03:15:19 14° E 03:18:10 10° ENE visible
26 Feb 2.2 04:54:38 18° SW 04:58:46 63° WNW 05:04:24 10° NNE visible
27 Feb 4.8 03:00:13 13° ESE 03:01:04 13° E 03:03:41 10° ENE visible
27 Feb 2.1 04:42:10 35° SW 04:44:29 65° WNW 04:50:08 10° NNE visible
28 Feb 4.9 02:47:24 13° E 02:47:24 13° E 02:49:12 10° ENE visible
28 Feb 2.1 04:29:20 59° WSW 04:30:12 68° WNW 04:35:52 10° NNE visible
01 Mar 5.1 02:34:20 11° ENE 02:34:20 11° ENE 02:34:39 10° ENE visible
01 Mar 2.1 04:16:15 69° NW 04:16:15 69° NW 04:21:36 10° NNE visible
02 Mar 2.6 04:03:00 52° N 04:03:00 52° N 04:07:19 10° NNE visible
03 Mar 3.2 03:49:35 38° N 03:49:35 38° N 03:53:02 10° NNE visible
